SCP
0 0 0 0 0 0 0 0 0 0 0 0 0 0 0 0 0 0 0 0 0 0 0 -0 0 0 0 0 0 0 0 0 0 0 0 0 0 0 0 0 0 0 0
0 0 0 0 0 0 0 0 0 0 0 0 0 0 0 0 0 0 0 0 0 0 -0 -0 -0 0 0 0 0 0 0 0 0 0 0 0 0 0 0 0 0 0 0
0 0 0 0 0 0 0 0 0 0 0 0 0 0 0 0 0 0 0 0 0 -0 -0 -0 -0 -0 0 0 0 0 0 0 0 0 0 0 0 0 0 0 0 0 0
0 0 0 0 0 0 0 0 0 0 0 0 0 0 0 0 0 0 0 0 0 -0 0 0 0 0 0 0 0 0 0 0 0 0 0 0 0 0 0 0 0 0 0
0 0 0 0 0 0 0 0 0 0 0 0 0 0 0 0 0 0 0 0 0 0 0 0 0 0 0 0 0 0 0 0 0 0 0 0 0 0 0 0 0 0 0
0 0 0 0 0 0 0 0 0 0 0 0 0 0 0 0 0 0 0 0 0 0 0 0 0 0 0 0 0 0 0 -0 -0 0 0 0 0 0 0 0 0 0 0
0 0 0 0 0 0 0 0 0 0 0 0 0 0 0 0 0 0 0 0 0 0 0 0 0 0 0 0 0 0 0 -0 -0 -0 0 0 0 0 0 0 0 0 0
0 0 0 0 0 0 0 0 0 0 0 0 0 0 0 0 0 0 0 0 0 0 0 0 0 0 0 0 0 0 0 -0 -0 -0 0 0 0 0 0 0 0 0 0
0 0 0 0 0 0 0 0 0 0 0 0 0 0 0 0 0 0 0 0 0 0 0 0 0 0 0 0 0 0 0 -0 -0 0 0 0 0 0 0 0 0 0 0
-0 -0 0 0 0 0 0 0 0 0 0 0 0 0 0 0 0 0 0 0 0 0 0 0 0 0 0 0 0 0 0 0 0 0 0 0 0 0 0 0 0 0 0
-0 -0 -0 0 0 0 0 0 0 0 0 0 0 0 0 0 0 0 0 0 0 0 0 0 0 0 0 0 0 0 0 0 0 0 0 1 1 0 0 0 0 0 0
0 -0 -0 -0 0 0 0 0 0 0 0 0 0 1 1 1 1 1 1 1 1 0 0 0 0 0 0 0 0 0 0 0 0 0 0 1 1 0 0 0 0 0 0
0 0 -0 0 0 0 0 0 0 0 1 1 1 1 1 1 1 1 1 1 1 1 1 1 1 1 1 1 1 1 0 0 0 0 1 1 1 0 0 0 0 0 0
0 0 0 0 0 0 0 0 0 1 1 1 1 1 1 1 1 1 1 1 1 1 1 1 1 1 1 1 1 1 1 0 0 0 1 1 1 1 0 0 0 0 0
0 0 0 0 0 0 0 0 1 1 1 1 1 1 1 1 1 1 1 1 1 1 1 1 1 1 1 1 1 1 1 1 0 1 1 1 1 1 1 0 0 0 0
0 0 0 0 0 0 0 1 1 0 0 0 0 0 0 0 1 1 1 1 0 0 0 0 0 1 1 1 1 1 1 1 1 1 1 1 1 1 1 1 1 1 1
1 1 0 0 0 1 0 0 0 0 0 0 0 0 0 0 0 0 0 0 0 0 0 0 0 0 0 1 1 1 1 1 1 1 1 1 1 1 1 1 1 1 1
1 1 1 0 1 1 0 0 0 0 0 0 0 0 0 0 0 0 0 0 0 0 0 0 0 0 0 0 0 0 0 1 1 1 1 1 1 1 1 1 1 1 1
1 1 1 0 0 0 0 0 0 0 0 0 0 0 0 0 0 0 0 0 0 0 0 0 0 0 0 0 0 0 0 0 0 0 1 1 1 1 1 1 1 1 1
0 0 0 0 0 0 0 0 0 0 0 0 0 0 0 0 0 0 0 0 0 0 0 0 0 0 0 0 0 0 0 0 0 0 0 0 1 1 1 1 1 1 1
0 0 0 0 0 0 0 0 0 0 0 0 0 0 0 0 0 0 0 0 0 0 0 0 0 0 0 0 0 0 0 0 0 0 0 0 0 0 1 1 1 1 1
0 0 0 0 0 0 0 0 0 0 0 0 0 0 0 0 0 0 0 0 0 0 0 0 0 0 0 0 0 0 0 0 0 0 0 0 0 0 0 1 1 1 1
0 0 0 0 0 0 0 0 0 0 0 0 0 0 0 0 0 0 0 0 0 0 0 0 0 0 0 0 0 0 0 0 0 0 0 0 0 0 0 0 0 1 1
0 0 0 0 0 0 0 0 0 0 0 0 0 0 0 0 0 0 0 0 0 0 0 0 0 0 0 0 0 0 0 0 0 0 0 0 0 0 0 0 0 0 0
0 0 0 0 0 0 0 0 0 0 0 0 0 0 0 0 0 0 0 0 0 0 0 0 0 0 0 0 0 0 0 0 0 0 0 0 0 0 0 0 0 0 0
0 0 0 0 1 1 0 0 0 0 0 0 0 0 0 0 0 0 0 0 0 0 0 0 0 0 0 0 0 0 0 0 0 0 0 0 0 0 0 0 0 0 0
Wind_Speed
13 15 16 12 11 10 10 11 12 12 12 12 12 12 12 11 10 10 9 8 7 6 6 6 6 6 6 7 8 9 9 8 9 9 10 10 10 11 12 13 12 13 15
15 17 16 13 12 11 11 11 11 11 11 12 12 11 11 10 10 9 8 7 6 5 5 5 5 6 6 7 8 8 8 8 8 9 10 11 11 11 10 9 7 13 14
16 17 16 13 12 11 11 11 11 11 11 11 11 10 10 9 9 8 7 6 5 5 5 5 5 5 6 6 7 7 7 7 7 7 8 9 11 10 9 9 14 15 14
16 16 15 14 12 12 11 11 11 11 11 10 10 9 9 8 8 7 6 6 5 4 4 4 4 5 5 6 6 6 6 6 6 6 6 7 10 11 10 11 13 13 13
14 14 15 15 13 12 11 11 11 11 10 10 9 8 8 7 7 6 5 5 4 4 4 4 4 4 4 4 5 4 5 5 5 8 5 6 8 11 10 11 12 12 13
14 14 16 14 13 12 12 11 11 10 10 9 8 7 7 6 5 5 4 4 4 4 4 4 4 4 4 4 3 4 4 4 8 4 5 5 8 10 10 11 12 12 12
14 13 16 14 13 12 11 11 11 10 9 9 8 7 6 5 5 5 4 4 4 3 4 4 4 4 4 4 4 4 4 4 8 3 4 4 8 10 10 11 11 11 11
13 12 14 13 12 11 11 10 10 9 9 8 8 7 6 6 5 5 5 5 4 4 4 4 5 5 6 5 5 5 5 7 7 4 4 4 10 9 9 10 10 11 11
11 11 11 13 11 10 9 9 9 8 8 7 7 6 6 6 6 6 6 6 6 6 6 6 6 6 7 7 7 7 7 8 9 4 5 4 10 9 9 10 10 11 11
9 9 9 9 9 9 9 9 7 6 6 6 6 6 5 6 8 7 8 7 6 6 6 6 7 8 8 8 8 8 8 9 11 8 5 6 12 10 10 11 11 11 12
8 7 7 8 7 6 6 8 8 7 6 6 7 6 6 6 6 7 6 3 5 6 7 7 7 8 9 10 11 11 10 9 11 8 6 9 12 12 12 12 12 13 13
9 8 6 5 5 4 3 4 4 4 4 4 3 4 4 3 3 5 2 2 4 6 8 8 8 9 10 8 10 12 8 11 10 7 5 11 11 12 13 13 13 14 14
9 8 7 5 5 4 2 2 1 1 1 2 2 3 2 2 3 4 2 3 4 6 6 6 7 6 7 6 6 7 8 9 7 7 7 13 13 14 14 14 15 15 15
8 7 6 6 4 2 1 0 0 0 1 1 0 2 2 2 3 3 3 3 3 2 4 5 4 6 7 8 9 9 10 8 8 6 6 13 14 15 15 16 15 16 17
8 7 5 4 4 3 2 1 0 0 1 1 1 1 2 2 2 2 2 2 3 3 4 4 5 6 7 8 8 9 10 11 11 10 6 11 14 15 16 17 17 17 18
7 6 6 5 5 4 3 2 1 1 1 1 2 3 2 2 2 2 2 2 3 3 3 4 5 6 6 6 8 9 10 11 11 11 10 9 14 16 17 18 18 18 19
7 6 6 5 5 4 4 3 2 2 2 2 2 2 2 2 2 2 2 2 2 3 3 4 5 5 6 6 8 9 9 10 11 11 11 9 10 16 18 18 18 18 18
7 7 6 5 5 5 3 2 2 2 2 1 1 1 2 2 2 3 3 3 3 4 4 4 5 5 5 6 6 7 8 8 11 11 11 11 10 10 15 20 19 18 19
6 6 6 5 5 4 4 3 2 2 1 1 1 2 2 2 3 4 3 3 5 5 4 5 4 5 6 6 7 7 8 8 9 11 12 13 12 12 10 13 19 20 21
6 6 6 6 5 4 4 3 2 2 1 0 1 2 2 3 3 5 5 3 6 6 5 4 5 5 6 6 8 8 8 9 9 10 11 11 11 13 14 13 11 15 22
6 6 6 6 5 4 3 3 2 2 1 1 0 2 2 3 4 4 6 4 5 6 6 7 6 7 7 5 8 8 8 10 9 8 8 9 10 11 11 12 10 10 11
7 7 6 6 6 5 3 2 1 2 2 2 2 1 2 3 4 4 4 6 5 5 6 6 6 7 7 5 7 8 8 6 5 6 5 6 7 7 9 11 11 11 11
8 8 7 6 6 5 4 3 3 3 4 4 3 2 2 4 4 5 5 6 6 8 6 6 7 8 7 7 6 6 7 6 6 4 4 4 4 5 7 7 10 11 12
9 8 8 7 6 5 6 5 5 5 6 5 4 4 4 5 5 5 6 6 6 7 6 8 6 6 7 8 6 5 7 7 7 7 5 4 4 5 6 6 7 8 10
9 8 8 7 7 6 6 5 6 6 5 5 5 5 6 5 5 6 6 6 6 7 6 7 7 8 7 8 8 7 6 6 8 8 9 7 6 5 5 6 6 7 8
8 8 8 7 6 6 6 6 6 6 6 7 7 7 6 5 5 5 6 6 7 7 6 7 7 8 8 8 8 8 8 8 8 8 9 9 8 7 6 6 7 7 7
Wind_Direction
146 137 138 143 140 135 131 133 139 144 147 147 147 147 148 147 147 145 141 137 131 123 112 102 97 96 98 101 105 108 111 113 116 119 121 121 123 124 128 134 143 121 121
141 137 140 144 141 137 130 127 128 133 138 141 142 143 145 145 146 145 144 140 135 128 115 105 100 99 99 102 108 111 115 121 124 126 131 129 125 126 132 138 119 115 129
141 138 145 143 141 138 133 127 125 126 130 134 136 139 141 143 144 145 146 145 144 136 121 111 106 105 105 107 111 115 119 124 125 137 166 146 127 129 128 118 112 127 130
142 143 147 141 142 140 136 132 129 127 127 130 132 134 137 141 145 149 152 154 154 146 134 124 116 112 112 115 117 120 125 126 131 184 184 130 134 128 132 128 130 135 134
140 141 137 146 146 144 141 138 134 132 131 132 134 136 140 144 151 158 163 167 169 165 155 144 131 126 126 127 129 131 131 130 159 227 120 126 123 134 142 141 141 141 140
144 148 139 151 149 148 146 144 141 138 137 137 139 143 148 155 163 172 177 179 184 183 176 167 153 150 151 151 153 153 152 162 219 174 132 151 129 143 151 151 149 148 148
150 146 142 153 152 152 152 150 148 147 148 149 152 156 163 171 183 193 199 199 207 209 201 196 185 175 179 181 185 186 191 214 253 151 158 151 121 146 162 160 157 157 155
150 148 139 151 155 156 157 156 155 156 159 162 167 171 178 185 198 211 220 222 228 229 225 222 212 200 199 202 205 209 216 242 236 200 194 156 120 159 174 170 167 166 164
151 147 150 157 159 160 160 162 163 165 169 173 178 185 195 205 213 221 229 231 238 240 237 235 230 222 214 213 216 221 227 244 265 225 205 174 141 176 187 182 179 177 174
153 152 155 158 159 169 170 167 171 175 179 183 192 201 212 223 226 227 233 225 240 248 248 244 240 234 227 223 222 226 232 238 246 232 215 163 152 187 198 194 190 188 185
153 153 164 154 160 175 174 156 178 183 190 202 202 202 221 239 237 220 230 211 243 255 258 256 254 245 238 228 225 224 229 239 237 242 227 140 164 193 203 203 201 198 196
161 165 160 165 155 182 180 161 194 197 180 222 236 228 231 241 269 275 142 205 252 262 264 257 257 251 243 237 219 216 231 237 248 236 214 149 178 201 209 209 208 206 204
167 171 162 164 165 186 176 191 192 216 167 224 240 263 269 275 263 271 272 230 239 247 261 252 245 247 247 247 248 233 237 245 242 243 214 167 189 208 216 216 213 212 210
171 168 161 160 165 171 186 214 230 300 272 280 264 292 291 283 279 282 277 284 278 275 270 275 270 264 261 256 252 250 247 245 245 245 230 177 196 212 220 221 219 216 213
167 165 157 160 160 164 168 254 55 315 298 316 346 16 330 296 288 290 289 286 278 271 264 272 277 275 269 257 252 248 248 246 246 245 239 198 205 215 222 225 224 221 217
163 157 156 161 156 158 154 150 147 128 104 31 34 40 7 335 335 302 275 293 293 288 300 290 284 280 276 271 263 255 251 249 245 242 245 227 213 217 222 226 227 226 222
157 157 157 158 154 153 152 153 139 110 82 60 59 53 26 4 3 319 307 283 306 297 283 275 281 275 269 268 265 263 258 253 252 246 244 242 229 218 218 223 227 227 225
157 156 160 154 142 144 138 139 113 81 82 64 42 45 34 10 329 304 302 310 321 292 288 287 277 287 285 281 276 272 267 260 255 250 245 240 239 235 218 217 222 226 226
154 154 154 144 145 144 143 150 129 111 90 72 42 27 24 336 318 299 307 326 293 286 288 291 301 297 293 288 281 267 263 259 256 251 248 246 241 237 236 215 214 221 227
156 159 156 156 149 158 162 161 157 153 157 113 40 41 347 324 323 310 291 308 298 289 288 293 299 285 287 287 287 284 272 264 256 253 250 246 242 238 236 235 223 220 223
168 171 174 174 164 183 190 208 205 208 224 244 301 35 334 331 331 309 308 311 293 292 297 292 288 280 272 288 285 281 269 253 248 250 248 251 245 241 240 237 236 235 222
182 184 188 191 189 204 197 233 270 298 275 290 305 302 307 318 310 299 318 300 302 297 276 279 275 287 290 281 290 295 288 267 228 242 247 243 250 248 243 238 236 234 240
194 196 199 200 202 213 213 225 223 229 247 249 266 266 302 303 301 311 305 304 309 291 290 291 280 270 283 285 278 292 297 303 318 257 248 260 264 261 257 253 244 239 238
203 202 205 208 211 212 220 240 256 275 290 308 302 307 301 286 294 297 297 295 295 295 295 280 282 284 273 276 269 258 274 302 296 295 270 255 264 268 268 265 257 246 240
209 209 207 209 213 214 228 236 252 269 287 292 296 289 287 288 283 289 293 295 291 286 295 299 297 282 276 273 280 276 268 261 256 271 284 289 284 278 273 270 266 256 245
213 213 212 209 215 215 223 235 253 277 288 296 294 297 290 290 286 287 287 287 282 287 289 281 282 272 273 280 280 278 274 273 272 274 278 282 285 286 286 278 265 255 247